STARLINK-1786 (46688 NORAD) Tracking and Keplerian Element Data

This shows tracking and keplerian element data for the satellite.

Feedback or suggestion? Click here.




ElementValue
Catalog46688
NameSTARLINK-1786
Epoch Orbit1453
Epoch Day17.91667824
Epoch Year2021
RAAN41.7773
Inclination53.0577
Eccentricity0.0001786
Argument of Perigee60.3677
Mean Anonmoly133.9243
Mean Motion15.06377058
Decay Rate0.00036748
L11 46688U 20073U 21017.91667824 .00036748 00000-0 24746-2 0 9991
L22 46688 53.0577 41.7773 0001786 60.3677 133.9243 15.06377058 14531

Live tracking and technical data element details for STARLINK-1786 (NORAD 46688). STARLINK-1786 can be tracked NOW for your location showing map with azimuth and elevation plus other details from your city location.

Track the satellite on the map from your city or location and see movement details for azimuth, elevation, latitude, longitude, range, height, and movement on the map or in text.







IsCatalogInMostPopularTable: catalog: 46688, numindb: 28
Update: records affected: 1



GetName: 46688 STARLINK-1786

Hit Count: updated at: Tue, 19 Jan 2021 03:22:13 GMT